Greenwood, SC

12:52 AM EDT on July 28, 2017 (GMT -0400)
Greenwood County

Weather History for KGRD - May, 2013

Change the Weather History Date:

Tuesday, May 14, 2013

  Actual Average (KAND) Record (KAND)
Temperature  
Mean Temperature 56 °F -  
Max Temperature 75 °F 81 °F 95 °F (1982)
Min Temperature 39 °F 57 °F 39 °F (1960)
Degree Days  
Heating Degree Days 9    
Growing Degree Days 6 (Base 50)    
Moisture  
Dew Point 41 °F    
Average Humidity 55    
Maximum Humidity 93    
Minimum Humidity 30    
Precipitation  
Precipitation 0.00 in - - ()
Sea Level Pressure  
Sea Level Pressure 30.21 in    
Wind  
Wind Speed 3 mph (SSW)    
Max Wind Speed 12 mph    
Max Gust Speed 17 mph    
Visibility 10 miles    
Events Rain    
Averages and records for this station are not official NWS values.
T = Trace of Precipitation, MM = Missing Value Source: NWS Daily Summary

Daily Weather History Graph

Daily Weather History Graph

Search for Another Location

Airport or City:

Trip Planner

Search our weather history database for the weather conditions in past years. The results will help you decide how hot, cold, wet, or windy it might be!

Date:

Astronomy

May. 14, 2013 Rise Set
Actual Time 6:27 AM EDT 8:23 PM EDT
Civil Twilight 5:59 AM EDT 8:50 PM EDT
Nautical Twilight 5:26 AM EDT 9:24 PM EDT
Astronomical Twilight 4:50 AM EDT 10:00 PM EDT
Moon 10:05 AM EDT (5/14) No Moon Set
Length of Visible Light 14h 51m
Length of Day
13h 55m
Waxing Crescent, 19% of the Moon is Illuminated
May 14
Waxing Crescent
May 18
First Quarter
May 25
Full
May 31
Last Quarter
Jun 8
New

Hourly Weather History & Observations

Time (EDT) Temp. Dew Point Humidity Pressure Visibility Wind Dir Wind Speed Gust Speed Precip Events Conditions
12:56 AM 48.0 °F 36.0 °F 63% 30.21 in 10.0 mi Calm Calm - N/A   Clear
1:56 AM 46.0 °F 37.9 °F 73% 30.21 in 10.0 mi Calm Calm - N/A   Clear
2:56 AM 43.0 °F 37.9 °F 82% 30.22 in 10.0 mi Calm Calm - N/A   Clear
3:56 AM 42.1 °F 39.0 °F 89% 30.22 in 10.0 mi Calm Calm - N/A   Clear
4:56 AM 41.0 °F 37.9 °F 89% 30.22 in 10.0 mi Calm Calm - N/A   Clear
5:56 AM 39.0 °F 37.0 °F 93% 30.22 in 10.0 mi Calm Calm - N/A   Clear
6:56 AM 41.0 °F 39.0 °F 93% 30.24 in 10.0 mi Calm Calm - N/A   Clear
7:56 AM 50.0 °F 43.0 °F 77% 30.25 in 10.0 mi Calm Calm - N/A   Clear
8:56 AM 55.9 °F 41.0 °F 57% 30.27 in 10.0 mi ENE 4.6 mph - N/A   Clear
9:56 AM 61.0 °F 37.9 °F 42% 30.27 in 10.0 mi SE 5.8 mph - N/A   Clear
10:56 AM 64.9 °F 36.0 °F 34% 30.29 in 10.0 mi Variable 4.6 mph - N/A   Clear
11:56 AM 66.9 °F 34.0 °F 30% 30.29 in 10.0 mi Calm Calm - N/A   Clear
12:56 PM 69.1 °F 37.0 °F 31% 30.27 in 10.0 mi South 6.9 mph - N/A   Clear
1:56 PM 70.0 °F 37.9 °F 31% 30.24 in 10.0 mi SSE 8.1 mph - 0.00 in   Clear
2:56 PM 72.0 °F 39.9 °F 31% 30.21 in 10.0 mi SSW 5.8 mph - 0.00 in Rain Light Rain
3:56 PM 73.0 °F 41.0 °F 31% 30.19 in 10.0 mi SSW 9.2 mph 17.3 mph 0.00 in   Clear
4:56 PM 73.9 °F 44.1 °F 34% 30.17 in 10.0 mi WSW 11.5 mph - N/A   Clear
5:56 PM 73.9 °F 45.0 °F 35% 30.16 in 10.0 mi WSW 5.8 mph - N/A   Clear
6:56 PM 73.9 °F 46.9 °F 38% 30.15 in 10.0 mi SW 8.1 mph - N/A   Clear
7:56 PM 71.1 °F 48.0 °F 44% 30.13 in 10.0 mi SSW 6.9 mph - N/A   Clear
8:56 PM 66.9 °F 48.9 °F 52% 30.14 in 10.0 mi SSW 6.9 mph - N/A   Clear
9:56 PM 66.9 °F 48.9 °F 52% 30.13 in 10.0 mi SSW 10.4 mph - N/A   Clear
10:56 PM 66.0 °F 48.9 °F 54% 30.13 in 10.0 mi SSW 10.4 mph - N/A   Clear
11:56 PM 64.9 °F 48.9 °F 56% 30.12 in 10.0 mi SSW 10.4 mph - N/A   Clear